Weather History for White Plains, NY

Change the Weather History Date:

Wednesday, June 20, 2012

  Actual Average Record
Temperature  
Mean Temperature 80 °F -  
Max Temperature 93 °F 77 °F 93 °F (2012)
Min Temperature 66 °F 59 °F 52 °F (1979)
Cooling Degree Days 14    
Growing Degree Days 30 (Base 50)    
Moisture  
Dew Point 69 °F    
Average Humidity 70    
Maximum Humidity 93    
Minimum Humidity 48    
Precipitation  
Precipitation 0.00 in - - ()
Sea Level Pressure  
Sea Level Pressure 30.00 in    
Wind  
Wind Speed 4 mph (WNW)    
Max Wind Speed 9 mph    
Max Gust Speed -    
Visibility 9 miles    
Events      
Averages and records for this station are not official NWS values.
T = Trace of Precipitation, MM = Missing Value Source: NWS Daily Summary

Daily Weather History Graph

Daily Weather History Graph

Search for Another Location

Airport:

Trip Planner

Search our weather history database for the weather conditions in past years. The results will help you decide how hot, cold, wet, or windy it might be!

Date:

Astronomy

Jun. 20, 2012 Rise Set
Actual Time 5:22 AM EDT 8:30 PM EDT
Civil Twilight 4:48 AM EDT 9:04 PM EDT
Nautical Twilight 4:05 AM EDT 9:47 PM EDT
Astronomical Twilight 3:14 AM EDT 10:38 PM EDT
Moon 6:20 AM EDT (6/20) 9:13 PM EDT (6/20)
Length of Visible Light 16h 15m
Length of Day
15h 08m
New Moon, 1% of the Moon is Illuminated
Jun 20
New Moon
Jun 26
First Quarter
Jul 3
Full
Jul 10
Last Quarter
Jul 19
New

Hourly Weather History & Observations

Time (EDT) Temp. Heat Index Dew Point Humidity Pressure Visibility Wind Dir Wind Speed Gust Speed Precip Events Conditions
12:56 AM 66.0 °F - 63.0 °F 90% 30.05 in 8.0 mi Calm Calm - N/A   Clear
1:56 AM 66.0 °F - 64.0 °F 93% 30.07 in 8.0 mi NW 3.5 mph - N/A   Clear
2:56 AM 66.0 °F - 64.0 °F 93% 30.06 in 9.0 mi Calm Calm - N/A   Clear
3:56 AM 68.0 °F - 66.0 °F 93% 30.04 in 8.0 mi Calm Calm - N/A   Clear
4:56 AM 68.0 °F - 66.0 °F 93% 30.03 in 6.0 mi West 4.6 mph - N/A   Clear
5:56 AM 68.0 °F - 66.0 °F 93% 30.05 in 4.0 mi WNW 5.8 mph - N/A   Scattered Clouds
6:56 AM 71.1 °F - 68.0 °F 90% 30.05 in 6.0 mi WNW 5.8 mph - N/A   Clear
7:56 AM 75.0 °F - 69.1 °F 82% 30.05 in 5.0 mi NW 5.8 mph - N/A   Haze
8:56 AM 79.0 °F - 70.0 °F 74% 30.05 in 7.0 mi WNW 8.1 mph - N/A   Clear
9:56 AM 82.9 °F 87.5 °F 71.1 °F 67% 30.04 in 9.0 mi West 5.8 mph - N/A   Clear
10:56 AM 86.0 °F 91.5 °F 71.1 °F 61% 30.04 in 10.0 mi WNW 8.1 mph - N/A   Clear
11:56 AM 88.0 °F 93.8 °F 71.1 °F 57% 30.03 in 10.0 mi NW 5.8 mph - N/A   Clear
12:56 PM 90.0 °F 96.9 °F 72.0 °F 55% 30.02 in 10.0 mi NW 8.1 mph - N/A   Clear
1:56 PM 91.0 °F 98.2 °F 72.0 °F 53% 30.00 in 10.0 mi NW 6.9 mph - N/A   Clear
2:56 PM 91.9 °F 100.7 °F 73.0 °F 54% 29.98 in 10.0 mi NW 9.2 mph - N/A   Clear
3:56 PM 93.0 °F 100.1 °F 71.1 °F 49% 29.96 in 10.0 mi WNW 9.2 mph - N/A   Clear
4:56 PM 93.0 °F 100.1 °F 71.1 °F 49% 29.94 in 10.0 mi WNW 8.1 mph - N/A   Clear
5:56 PM 91.9 °F 97.4 °F 70.0 °F 48% 29.93 in 10.0 mi WNW 8.1 mph - N/A   Clear
6:56 PM 91.0 °F 97.6 °F 71.1 °F 52% 29.93 in 10.0 mi West 4.6 mph - N/A   Clear
7:56 PM 86.0 °F 91.5 °F 71.1 °F 61% 29.92 in 10.0 mi WSW 3.5 mph - N/A   Clear
8:56 PM 84.0 °F 89.0 °F 71.1 °F 65% 29.91 in 10.0 mi Calm Calm - N/A   Clear
9:56 PM 81.0 °F 85.2 °F 72.0 °F 74% 29.93 in 10.0 mi WNW 4.6 mph - N/A   Clear
10:56 PM 79.0 °F - 72.0 °F 79% 29.92 in 10.0 mi West 3.5 mph - N/A   Clear
11:56 PM 82.4 °F 86.3 °F 69.8 °F 66% 29.94 in 10.0 mi West 5.8 mph - N/A   Clear